Meteo Giornale » Osservazioni meteo Italia » Ronchi Dei Legionari

ore: 19:20 - Osservazioni Meteo Ronchi Dei Legionari
Lat. 45° 49' N Lon. 13° 29' E Alt. 12 metri s.l.m.

sereno Europe/Rome

26 °C

Sereno

Temp. 24 Ore

15 °C

29 °C

Sud-Ovest

7.4 Km/h

Dew point 15 °C

Umidità 50 %

Visibilità  10 Km

Il sole sorge alle ore 06:07

Il sole tramonta alle ore 20:13

Data e Ora Cielo e Fenomeni T °C DP °C Um. % Pres. hPa Vis. km Vento km/h
Oggi h: 19:20 sereno Sereno 26 15 50 1015 10 SO 7.4
Oggi h: 18:50 sereno Sereno 27 15 47 1015 10 SO 9.3
Oggi h: 18:20 sereno Sereno 27 13 42 1015 10 SO 9.3
Oggi h: 17:50 sereno Sereno 27 14 44 1015 10 SO 9.3
Oggi h: 17:20 sereno Sereno 28 13 39 1016 10 O 11.1
Oggi h: 16:50 sereno Sereno 29 14 39 1016 10 SO 13
Oggi h: 16:20 sereno Sereno 29 13 37 1016 10 S/SO 13
Oggi h: 15:50 sereno Sereno 28 12 37 1016 10 O/SO 13
Oggi h: 15:20 sereno Sereno 29 12 35 1016 10 O/SO 13
Oggi h: 14:50 sereno Sereno 29 13 37 1016 10 SO 14.8
Oggi h: 14:20 sereno Sereno 29 12 35 1016 10 O/SO 14.8
Oggi h: 13:50 sereno Sereno 28 14 42 1016 10 N 9.3
Oggi h: 13:20 sereno Sereno 29 14 39 1016 10 SO 11.1
Oggi h: 12:50 sereno Sereno 28 13 39 1016 10 N 3.7
Oggi h: 12:20 sereno Sereno 27 13 42 1017 10 N 5.5
Oggi h: 11:50 sereno Sereno 27 14 44 1017 10 N 7.4
Oggi h: 11:20 sereno Sereno 27 13 42 1017 10 N 1.8
Oggi h: 10:50 sereno Sereno 26 14 47 1017 10 N 5.5
Oggi h: 10:20 sereno Sereno 25 15 53 1017 10 N 5.5
Oggi h: 09:20 sereno Sereno 24 14 53 1016 10 N 1.8
Oggi h: 08:50 sereno Sereno 22 14 60 1017 10 N 3.7
Oggi h: 08:20 sereno Sereno 21 14 64 1017 10 N 3.7
Oggi h: 07:50 sereno Sereno 20 14 68 1016 10 N 3.7
Oggi h: 07:20 sereno Sereno 18 14 77 1016 10 N 3.7
Oggi h: 06:50 sereno Sereno 16 14 87 1016 10 N 7.4
Oggi h: 06:20 sereno Sereno 15 13 87 1016 10 N/NE 7.4
Oggi h: 05:50 poco_nuvoloso Poco Nuvoloso 16 14 87 1016 10 N/NE 7.4
Oggi h: 05:20 nuvoloso Nuvoloso 16 14 87 1016 10 N 9.3
Oggi h: 04:50 sereno Sereno 16 13 82 1016 10 N 5.5
Oggi h: 04:20 sereno Sereno 16 14 87 1016 10 N 5.5
Oggi h: 03:50 sereno Sereno 16 14 87 1016 10 N 5.5
Oggi h: 03:20 sereno Sereno 16 14 87 1016 10 N/NE 7.4
Oggi h: 02:50 sereno Sereno 16 14 87 1017 10 N 3.7
Oggi h: 02:20 sereno Sereno 16 14 87 1017 10 N 7.4
Oggi h: 01:50 sereno Sereno 16 15 93 1017 10 N 5.5
Oggi h: 01:20 sereno Sereno 18 14 77 1017 10 E/NE 7.4
Oggi h: 00:50 sereno Sereno 18 15 82 1017 10 N 1.8
Oggi h: 00:20 sereno Sereno 18 15 82 1017 10 N 3.7
Ieri h: 23:50 sereno Sereno 19 14 72 1017 10 N/NE 7.4
Ieri h: 23:20 sereno Sereno 18 16 88 1017 10 N 7.4
Ieri h: 22:50 sereno Sereno 20 14 68 1017 10 N 3.7
Ieri h: 22:20 sereno Sereno 21 14 64 1017 10 E 9.3
Ieri h: 21:50 sereno Sereno 20 16 77 1017 10 N 1.8
Ieri h: 21:20 sereno Sereno 20 16 77 1016 10 N 1.8
Ieri h: 20:50 sereno Sereno 21 16 73 1016 10 N 5.5
Ieri h: 20:20 sereno Sereno 23 15 60 1016 10 N 5.5
Ieri h: 19:50 sereno Sereno 24 14 53 1015 10 N 5.5